Location: Morlupo
(42.1333°N, 12.5000°E)
Time: 16:15:31
(UTC+00:00)

Meteor 1-24 Rocket - Pass Details

Date: 18 September 2020
Orbit: 790 x 927 km, 81.2° (Epoch: 20 October)

Event Time Altitude Azimuth Distance (km) Brightness Sun altitude
Rises 19:07:20 0° 358° (N) 3,351 7.1 -21.3°
Reaches altitude 10° 19:09:56 10° 8° (N) 2,433 6.3 -21.7°
Enters shadow 19:14:23 33° 61° (ENE) 1,380 4.5 -22.5°
